Location: Asheville, NC
(35.6000°N, 82.5500°W)
Time: 16:02:09
(UTC-05:00)

XW-2B - Pass Details

Date: 10 January 2018
Orbit: 511 x 530 km, 97.5° (Epoch: 16 January)

Event Time Altitude Azimuth Distance (km) Brightness Sun altitude
Rises 18:32:26 0° 193° (SSW) 2,652 ? -11.4°
Reaches altitude 10° 18:34:48 10° 207° (SSW) 1,768 ? -11.9°
Maximum altitude 18:37:59 25° 264° (W) 1,090 ? -12.5°
Drops below altitude 10° 18:41:12 10° 321° (NW) 1,778 ? -13.1°
Sets 18:43:36 0° 334° (NNW) 2,671 ? -13.6°
